Flag for Canada Weather past 2 weeks in Victoria, British Columbia, Canada

Now
52 °F

Passing clouds.


Feels Like: 46 °F
Forecast: 48 / 54 °F
Wind: 22 mph from West

Location: Victoria Int. Airportb. C.

Current Time: Mar 28, 2015 at 8:23:50 AM

Latest Report: Mar 28, 2015 at 8:00 AM


Visibility: 30 mi

Pressure: 30.16 "Hg

Humidity: 67%

Dew point: 41 °F

Location of VictoriaLocation

Historic Weather in Victoria — Graph

°F

Victoria temperature yesterday

Maximum temperature yesterday: 55 °F (at 3:00 PM)
Minimum temperature yesterday: 46 °F (at 8:00 AM)
Average temperature yesterday: 52 °F

Past Weeks' High & Low Weather Summary

 TemperatureHumidityPressure
High59 °F (Mar 14, 11:00 AM)100% (Mar 14, 1:00 AM)30.29 "Hg (Mar 14, 1:00 AM)
Low36 °F (Mar 24, 7:03 AM)41% (Mar 16, 5:00 PM)29.67 "Hg (Mar 14, 8:00 AM)
Average49 °F86%30.03 "Hg
* Reported Mar 13 7:00 AM — Mar 28 7:00 AM, Victoria, Weather by CustomWeather, © 2015

Note: Actual official high and low records may vary slightly from our data, if they occured in-between our weather recording intervals... More about our weather records

Advertising

Victoria weather history for previous 24 hours

 ConditionsComfort  
Time TempWeatherWind HumidityBarometerVisibility
7:00 AM
Sat, Mar 28
50 °FPassing clouds.13 mph71%30.11 "Hg30 mi
6:00 AM52 °FPassing clouds.17 mph67%30.06 "Hg30 mi
5:00 AM52 °FPartly cloudy.16 mph67%30.02 "Hg30 mi
4:00 AM52 °FPartly cloudy.7 mph72%29.98 "Hg30 mi
3:00 AM50 °FPartly cloudy.3 mph71%29.98 "Hg30 mi
2:00 AM52 °FPartly cloudy.17 mph67%29.97 "Hg30 mi
1:00 AM52 °FPassing clouds.3 mph72%29.96 "Hg30 mi
12:00 AM52 °FPassing clouds.16 mph72%29.94 "Hg30 mi
11:00 PM
Fri, Mar 27
54 °FPartly cloudy.17 mph72%29.92 "Hg30 mi
10:00 PM54 °FMostly cloudy.14 mph77%29.89 "Hg20 mi
9:45 PM54 °FOvercast.17 mph82%29.90 "Hg20 mi
9:00 PM54 °FLight rain. Mostly cloudy.20 mph77%29.89 "Hg15 mi
8:00 PM55 °FLight rain. Mostly cloudy.10 mph77%29.88 "Hg20 mi
7:00 PM54 °FPartly sunny.5 mph88%29.88 "Hg30 mi
6:00 PM54 °FPartly sunny.6 mph88%29.89 "Hg30 mi
5:00 PM55 °FBroken clouds.8 mph82%29.90 "Hg30 mi
4:00 PM55 °FPartly sunny.14 mph82%29.90 "Hg30 mi
3:00 PM55 °FBroken clouds.16 mph82%29.93 "Hg30 mi
2:00 PM54 °FBroken clouds.14 mph88%29.96 "Hg30 mi
1:00 PM52 °FPartly sunny.12 mph88%29.97 "Hg30 mi
12:00 PM54 °FPartly sunny.9 mph88%29.99 "Hg30 mi
11:00 AM54 °FPartly sunny.7 mph94%30.00 "Hg30 mi
10:00 AM50 °FPartly sunny.3 mph94%30.01 "Hg30 mi
9:00 AM50 °FPartly sunny.3 mph94%30.01 "Hg20 mi
8:46 AM48 °FPartly sunny.5 mph100%30.01 "Hg20 mi
8:00 AM46 °FPassing clouds.5 mph100%30.01 "Hg30 mi
Weather by CustomWeather, © 2015

See weather overviewHow to use our weather pages